| time (UTC) | temp F | wind direction | speed MPH | gust MPH | rain 1hr in | rain 24hr in | rain mn in | humidity % | barometer mb |
| 20260508133102 | 37 | 0 | 0.0 | 2.0 | 0.00 | 0.00 | 0.00 | 82 | 1023.9 |
| 20260508132555 | 37 | 0 | 0.0 | 2.0 | 0.00 | 0.00 | 0.00 | 82 | 1023.8 |
| 20260508132056 | 37 | 0 | 0.0 | 2.0 | 0.00 | 0.00 | 0.00 | 82 | 1023.7 |
| 20260508131556 | 37 | 0 | 0.0 | 2.0 | 0.00 | 0.00 | 0.00 | 82 | 1023.6 |
| 20260508131057 | 37 | 84 | 0.0 | 2.0 | 0.00 | 0.00 | 0.00 | 81 | 1023.6 |
| 20260508130555 | 37 | 83 | 0.0 | 2.0 | 0.00 | 0.00 | 0.00 | 82 | 1023.5 |
| 20260508130054 | 37 | 0 | 0.0 | 2.0 | 0.00 | 0.00 | 0.00 | 83 | 1023.5 |
| 20260508125558 | 37 | 83 | 0.0 | 2.0 | 0.00 | 0.00 | 0.00 | 82 | 1023.5 |
| 20260508125056 | 37 | 0 | 0.0 | 2.0 | 0.00 | 0.00 | 0.00 | 84 | 1023.5 |
| 20260508124555 | 37 | 84 | 0.0 | 2.0 | 0.00 | 0.00 | 0.00 | 83 | 1023.5 |
| 20260508124055 | 37 | 83 | 0.0 | 3.0 | 0.00 | 0.00 | 0.00 | 83 | 1023.5 |
| 20260508123555 | 37 | 0 | 0.0 | 3.0 | 0.00 | 0.00 | 0.00 | 84 | 1023.4 |
| 20260508123055 | 37 | 0 | 0.0 | 2.0 | 0.00 | 0.00 | 0.00 | 84 | 1023.5 |
| 20260508122600 | 38 | 76 | 0.0 | 2.0 | 0.00 | 0.00 | 0.00 | 85 | 1023.5 |
| 20260508122058 | 38 | 0 | 0.0 | 2.0 | 0.00 | 0.00 | 0.00 | 85 | 1023.5 |
| 20260508121556 | 38 | 0 | 0.0 | 3.0 | 0.00 | 0.00 | 0.00 | 85 | 1023.5 |
| 20260508121056 | 38 | 82 | 0.0 | 3.0 | 0.00 | 0.00 | 0.00 | 84 | 1023.4 |
| 20260508120555 | 38 | 0 | 0.0 | 3.0 | 0.00 | 0.00 | 0.00 | 83 | 1023.4 |
| 20260508120103 | 38 | 0 | 0.0 | 3.0 | 0.00 | 0.00 | 0.00 | 83 | 1023.5 |
| 20260508115600 | 38 | 0 | 0.0 | 2.0 | 0.00 | 0.00 | 0.00 | 84 | 1023.5 |
| 20260508115055 | 38 | 0 | 0.0 | 2.0 | 0.00 | 0.00 | 0.00 | 84 | 1023.5 |
| 20260508114603 | 38 | 0 | 0.0 | 2.0 | 0.00 | 0.00 | 0.00 | 85 | 1023.5 |
| 20260508114055 | 38 | 84 | 0.0 | 2.0 | 0.00 | 0.00 | 0.00 | 83 | 1023.5 |
| 20260508113555 | 38 | 0 | 0.0 | 2.0 | 0.00 | 0.00 | 0.00 | 84 | 1023.6 |
| 20260508113101 | 38 | 84 | 0.0 | 3.0 | 0.00 | 0.00 | 0.00 | 84 | 1023.5 |
| 20260508112555 | 38 | 0 | 0.0 | 3.0 | 0.00 | 0.00 | 0.00 | 84 | 1023.5 |
| 20260508112055 | 38 | 84 | 0.0 | 3.0 | 0.00 | 0.00 | 0.00 | 85 | 1023.4 |
| 20260508111556 | 38 | 0 | 0.0 | 2.0 | 0.00 | 0.00 | 0.00 | 84 | 1023.5 |
| 20260508111056 | 38 | 0 | 0.0 | 2.0 | 0.00 | 0.00 | 0.00 | 84 | 1023.5 |
| 20260508110555 | 38 | 0 | 0.0 | 2.0 | 0.00 | 0.00 | 0.00 | 83 | 1023.4 |
| 20260508110103 | 38 | 0 | 0.0 | 2.0 | 0.00 | 0.00 | 0.00 | 84 | 1023.5 |
| 20260508105556 | 38 | 0 | 0.0 | 2.0 | 0.00 | 0.00 | 0.00 | 85 | 1023.5 |
| 20260508105056 | 38 | 0 | 0.0 | 2.0 | 0.00 | 0.00 | 0.00 | 84 | 1023.7 |
| 20260508104554 | 38 | 86 | 0.0 | 2.0 | 0.00 | 0.00 | 0.00 | 84 | 1023.7 |
| 20260508104059 | 38 | 0 | 0.0 | 2.0 | 0.00 | 0.00 | 0.00 | 84 | 1023.7 |
| 20260508103555 | 38 | 0 | 0.0 | 2.0 | 0.00 | 0.00 | 0.00 | 84 | 1023.7 |
| 20260508103059 | 38 | 0 | 0.0 | 2.0 | 0.00 | 0.00 | 0.00 | 84 | 1023.7 |
| 20260508102555 | 38 | 82 | 0.0 | 2.0 | 0.00 | 0.00 | 0.00 | 84 | 1023.7 |
| 20260508102055 | 38 | 84 | 0.0 | 2.0 | 0.00 | 0.00 | 0.00 | 84 | 1023.6 |
| 20260508101557 | 38 | 84 | 0.0 | 2.0 | 0.00 | 0.00 | 0.00 | 83 | 1023.7 |
| 20260508101058 | 38 | 0 | 0.0 | 2.0 | 0.00 | 0.00 | 0.00 | 82 | 1023.6 |
| 20260508100600 | 39 | 0 | 0.0 | 2.0 | 0.00 | 0.00 | 0.00 | 83 | 1023.7 |
| 20260508100126 | 39 | 0 | 0.0 | 2.0 | 0.00 | 0.00 | 0.00 | 82 | 1023.7 |
| 20260508095556 | 39 | 0 | 0.0 | 2.0 | 0.00 | 0.00 | 0.00 | 82 | 1023.7 |
| 20260508095056 | 39 | 0 | 0.0 | 2.0 | 0.00 | 0.00 | 0.00 | 81 | 1023.8 |
| 20260508094556 | 39 | 90 | 0.0 | 2.0 | 0.00 | 0.00 | 0.00 | 81 | 1023.8 |
| 20260508094056 | 39 | 0 | 0.0 | 2.0 | 0.00 | 0.00 | 0.00 | 81 | 1023.7 |
| 20260508093556 | 39 | 0 | 0.0 | 2.0 | 0.00 | 0.00 | 0.00 | 81 | 1023.6 |
| 20260508093055 | 39 | 0 | 0.0 | 2.0 | 0.00 | 0.00 | 0.00 | 81 | 1023.7 |
| 20260508092556 | 39 | 0 | 0.0 | 0.0 | 0.00 | 0.00 | 0.00 | 82 | 1023.8 |
| 20260508092055 | 40 | 0 | 0.0 | 1.0 | 0.00 | 0.00 | 0.00 | 81 | 1023.8 |
| 20260508091610 | 40 | 0 | 0.0 | 2.0 | 0.00 | 0.00 | 0.00 | 82 | 1023.9 |
| 20260508091059 | 40 | 0 | 0.0 | 3.0 | 0.00 | 0.00 | 0.00 | 82 | 1023.8 |
| 20260508090559 | 40 | 0 | 0.0 | 3.0 | 0.00 | 0.00 | 0.00 | 81 | 1023.8 |
| 20260508090055 | 40 | 81 | 0.0 | 2.0 | 0.00 | 0.00 | 0.00 | 81 | 1023.8 |
| 20260508085555 | 41 | 0 | 0.0 | 2.0 | 0.00 | 0.00 | 0.00 | 81 | 1023.6 |
| 20260508085056 | 41 | 0 | 0.0 | 2.0 | 0.00 | 0.00 | 0.00 | 81 | 1023.7 |
| 20260508084557 | 41 | 0 | 0.0 | 3.0 | 0.00 | 0.00 | 0.00 | 81 | 1023.8 |
| 20260508084055 | 41 | 83 | 0.0 | 3.0 | 0.00 | 0.00 | 0.00 | 81 | 1023.8 |
| 20260508083555 | 41 | 0 | 0.0 | 3.0 | 0.00 | 0.00 | 0.00 | 81 | 1023.8 |
| 20260508083055 | 41 | 0 | 0.0 | 3.0 | 0.00 | 0.00 | 0.00 | 81 | 1023.8 |
| 20260508082556 | 41 | 0 | 1.0 | 3.0 | 0.00 | 0.00 | 0.00 | 81 | 1023.9 |
| 20260508082056 | 41 | 84 | 0.0 | 3.0 | 0.00 | 0.00 | 0.00 | 80 | 1024.0 |
| 20260508081611 | 41 | 80 | 0.0 | 3.0 | 0.00 | 0.00 | 0.00 | 81 | 1024.1 |
| 20260508081055 | 41 | 0 | 0.0 | 3.0 | 0.00 | 0.00 | 0.00 | 80 | 1024.0 |
| 20260508080556 | 42 | 82 | 0.0 | 2.0 | 0.00 | 0.00 | 0.00 | 81 | 1024.2 |
| 20260508080059 | 42 | 86 | 0.0 | 2.0 | 0.00 | 0.00 | 0.00 | 80 | 1024.2 |
| 20260508075556 | 42 | 86 | 1.0 | 2.0 | 0.00 | 0.00 | 0.00 | 80 | 1024.3 |
| 20260508075057 | 42 | 85 | 0.0 | 3.0 | 0.00 | 0.00 | 0.00 | 81 | 1024.3 |
| 20260508074602 | 42 | 84 | 0.0 | 3.0 | 0.00 | 0.00 | 0.00 | 81 | 1024.4 |
| 20260508074056 | 42 | 0 | 0.0 | 3.0 | 0.00 | 0.00 | 0.00 | 81 | 1024.5 |
| 20260508073556 | 42 | 87 | 0.0 | 2.0 | 0.00 | 0.00 | 0.00 | 81 | 1024.4 |
| 20260508073057 | 42 | 0 | 0.0 | 2.0 | 0.00 | 0.00 | 0.00 | 81 | 1024.5 |
| 20260508072556 | 43 | 87 | 0.0 | 2.0 | 0.00 | 0.00 | 0.00 | 80 | 1024.5 |
| 20260508072058 | 43 | 86 | 0.0 | 1.0 | 0.00 | 0.00 | 0.00 | 81 | 1024.4 |
| 20260508071554 | 43 | 0 | 0.0 | 2.0 | 0.00 | 0.00 | 0.00 | 80 | 1024.4 |
| 20260508071056 | 43 | 0 | 0.0 | 2.0 | 0.00 | 0.00 | 0.00 | 80 | 1024.3 |
| 20260508070556 | 43 | 0 | 0.0 | 2.0 | 0.00 | 0.00 | 0.00 | 79 | 1024.3 |
| 20260508070100 | 43 | 82 | 0.0 | 3.0 | 0.00 | 0.00 | 0.00 | 79 | 1024.3 |
| 20260508065556 | 44 | 0 | 0.0 | 3.0 | 0.00 | 0.00 | 0.00 | 79 | 1024.4 |
| 20260508065055 | 44 | 84 | 1.0 | 3.0 | 0.00 | 0.00 | 0.00 | 80 | 1024.4 |
| 20260508064557 | 44 | 86 | 0.0 | 2.0 | 0.00 | 0.00 | 0.00 | 80 | 1024.4 |
| 20260508064055 | 44 | 0 | 0.0 | 2.0 | 0.00 | 0.00 | 0.00 | 80 | 1024.4 |
| 20260508063556 | 45 | 85 | 1.0 | 3.0 | 0.00 | 0.00 | 0.00 | 80 | 1024.4 |
| 20260508063058 | 45 | 0 | 0.0 | 3.0 | 0.00 | 0.00 | 0.00 | 81 | 1024.4 |
| 20260508062556 | 45 | 80 | 0.0 | 3.0 | 0.00 | 0.00 | 0.00 | 81 | 1024.4 |
| 20260508062055 | 45 | 0 | 0.0 | 3.0 | 0.00 | 0.00 | 0.00 | 81 | 1024.5 |
| 20260508061604 | 45 | 82 | 0.0 | 3.0 | 0.00 | 0.00 | 0.00 | 81 | 1024.6 |
| 20260508061056 | 45 | 80 | 0.0 | 3.0 | 0.00 | 0.00 | 0.00 | 81 | 1024.5 |
| 20260508060556 | 46 | 0 | 0.0 | 3.0 | 0.00 | 0.00 | 0.00 | 81 | 1024.6 |
| 20260508060111 | 46 | 88 | 0.0 | 3.0 | 0.00 | 0.00 | 0.00 | 81 | 1024.5 |
| 20260508055556 | 46 | 0 | 0.0 | 3.0 | 0.00 | 0.00 | 0.00 | 80 | 1024.6 |
| 20260508055056 | 46 | 0 | 0.0 | 3.0 | 0.00 | 0.00 | 0.00 | 80 | 1024.6 |
| 20260508054639 | 46 | 0 | 1.0 | 3.0 | 0.00 | 0.00 | 0.00 | 80 | 1024.7 |
| 20260508054056 | 47 | 0 | 0.0 | 3.0 | 0.00 | 0.00 | 0.00 | 80 | 1024.8 |
| 20260508053555 | 47 | 83 | 0.0 | 3.0 | 0.00 | 0.00 | 0.00 | 80 | 1024.8 |
| 20260508053056 | 47 | 0 | 0.0 | 3.0 | 0.00 | 0.00 | 0.00 | 79 | 1024.7 |
| 20260508052556 | 47 | 84 | 0.0 | 2.0 | 0.00 | 0.00 | 0.00 | 79 | 1024.7 |
| 20260508052056 | 48 | 86 | 0.0 | 2.0 | 0.00 | 0.00 | 0.00 | 79 | 1024.7 |
| 20260508051557 | 48 | 91 | 0.0 | 2.0 | 0.00 | 0.00 | 0.00 | 79 | 1024.8 |
| 20260508051055 | 48 | 0 | 0.0 | 2.0 | 0.00 | 0.00 | 0.00 | 79 | 1024.7 |
| 20260508050556 | 48 | 0 | 0.0 | 2.0 | 0.00 | 0.00 | 0.00 | 79 | 1024.8 |
| 20260508050057 | 48 | 0 | 0.0 | 2.0 | 0.00 | 0.00 | 0.00 | 78 | 1024.7 |
| 20260508045555 | 49 | 0 | 0.0 | 2.0 | 0.00 | 0.00 | 0.00 | 78 | 1024.8 |
| 20260508045056 | 49 | 0 | 0.0 | 2.0 | 0.00 | 0.00 | 0.00 | 78 | 1024.8 |
| 20260508044557 | 49 | 0 | 0.0 | 1.0 | 0.00 | 0.00 | 0.00 | 78 | 1024.8 |
| 20260508044056 | 49 | 0 | 0.0 | 0.0 | 0.00 | 0.00 | 0.00 | 77 | 1024.7 |
| 20260508043555 | 50 | 0 | 0.0 | 0.0 | 0.00 | 0.00 | 0.00 | 76 | 1024.6 |
| 20260508043059 | 50 | 0 | 0.0 | 0.0 | 0.00 | 0.00 | 0.00 | 76 | 1024.6 |
| 20260508042556 | 50 | 0 | 0.0 | 1.0 | 0.00 | 0.00 | 0.00 | 76 | 1024.5 |
| 20260508042055 | 51 | 0 | 0.0 | 1.0 | 0.00 | 0.00 | 0.00 | 76 | 1024.6 |
| 20260508041556 | 51 | 0 | 0.0 | 1.0 | 0.00 | 0.00 | 0.00 | 76 | 1024.4 |
| 20260508041056 | 51 | 0 | 0.0 | 1.0 | 0.00 | 0.00 | 0.00 | 76 | 1024.4 |
| 20260508040556 | 52 | 0 | 0.0 | 1.0 | 0.00 | 0.00 | 0.00 | 75 | 1024.2 |
| 20260508040100 | 52 | 0 | 0.0 | 1.0 | 0.00 | 0.00 | 0.00 | 75 | 1024.1 |
| 20260508035555 | 53 | 0 | 0.0 | 0.0 | 0.00 | 0.00 | 0.00 | 74 | 1024.0 |
| 20260508035056 | 53 | 0 | 0.0 | 0.0 | 0.00 | 0.00 | 0.00 | 74 | 1024.0 |
| 20260508034554 | 53 | 0 | 0.0 | 0.0 | 0.00 | 0.00 | 0.00 | 73 | 1023.9 |
| 20260508034055 | 54 | 0 | 0.0 | 0.0 | 0.00 | 0.00 | 0.00 | 72 | 1023.8 |
| 20260508033555 | 54 | 0 | 0.0 | 1.0 | 0.00 | 0.00 | 0.00 | 72 | 1023.8 |
| 20260508033055 | 54 | 0 | 0.0 | 2.0 | 0.00 | 0.00 | 0.00 | 71 | 1023.8 |
| 20260508032556 | 54 | 0 | 0.0 | 3.0 | 0.00 | 0.00 | 0.00 | 69 | 1023.6 |
| 20260508032055 | 54 | 0 | 0.0 | 3.0 | 0.00 | 0.00 | 0.00 | 68 | 1023.5 |
| 20260508031600 | 55 | 223 | 0.0 | 3.0 | 0.00 | 0.00 | 0.00 | 67 | 1023.4 |
| 20260508031056 | 55 | 0 | 0.0 | 3.0 | 0.00 | 0.00 | 0.00 | 67 | 1023.3 |
| 20260508030556 | 55 | 0 | 0.0 | 3.0 | 0.00 | 0.00 | 0.00 | 66 | 1023.4 |
| 20260508030109 | 55 | 0 | 0.0 | 3.0 | 0.00 | 0.00 | 0.00 | 66 | 1023.2 |
| 20260508025553 | 56 | 0 | 0.0 | 1.0 | 0.00 | 0.00 | 0.00 | 65 | 1023.1 |
| 20260508025055 | 56 | 0 | 0.0 | 1.0 | 0.00 | 0.00 | 0.00 | 65 | 1023.2 |
| 20260508024607 | 57 | 0 | 0.0 | 3.0 | 0.00 | 0.00 | 0.00 | 65 | 1023.2 |
| 20260508024055 | 57 | 284 | 0.0 | 4.0 | 0.00 | 0.00 | 0.00 | 64 | 1023.0 |
| 20260508023555 | 57 | 0 | 1.0 | 4.0 | 0.00 | 0.00 | 0.00 | 63 | 1023.0 |
| 20260508023055 | 57 | 0 | 1.0 | 7.0 | 0.00 | 0.00 | 0.00 | 61 | 1022.9 |
| 20260508022557 | 58 | 15 | 0.0 | 7.0 | 0.00 | 0.00 | 0.00 | 58 | 1023.0 |
| 20260508022056 | 58 | 16 | 1.0 | 7.0 | 0.00 | 0.00 | 0.00 | 58 | 1022.9 |
| 20260508021557 | 58 | 313 | 1.0 | 7.0 | 0.00 | 0.00 | 0.00 | 58 | 1022.9 |
| 20260508021055 | 59 | 15 | 0.0 | 5.0 | 0.00 | 0.00 | 0.00 | 58 | 1022.8 |
| 20260508020556 | 59 | 15 | 2.0 | 7.0 | 0.00 | 0.00 | 0.00 | 55 | 1022.8 |
| 20260508020104 | 59 | 16 | 2.0 | 7.0 | 0.00 | 0.00 | 0.00 | 55 | 1022.9 |
| 20260508015555 | 60 | 15 | 1.0 | 6.0 | 0.00 | 0.00 | 0.00 | 55 | 1022.8 |
| 20260508015056 | 60 | 15 | 1.0 | 7.0 | 0.00 | 0.00 | 0.00 | 53 | 1022.8 |
| 20260508014611 | 60 | 15 | 3.0 | 7.0 | 0.00 | 0.00 | 0.00 | 51 | 1022.8 |
| 20260508014056 | 61 | 15 | 1.0 | 7.0 | 0.00 | 0.00 | 0.00 | 50 | 1022.8 |
| 20260508013556 | 61 | 15 | 2.0 | 8.0 | 0.00 | 0.00 | 0.00 | 50 | 1022.8 |
| 20260508013100 | 61 | 15 | 2.0 | 8.0 | 0.00 | 0.00 | 0.00 | 48 | 1022.7 |
| 20260508012556 | 62 | 15 | 2.0 | 9.0 | 0.00 | 0.00 | 0.00 | 48 | 1022.8 |
| 20260508012056 | 62 | 15 | 2.0 | 9.0 | 0.00 | 0.00 | 0.00 | 49 | 1022.7 |
| 20260508011604 | 62 | 15 | 1.0 | 8.0 | 0.00 | 0.00 | 0.00 | 45 | 1022.7 |
| 20260508011056 | 62 | 15 | 2.0 | 7.0 | 0.00 | 0.00 | 0.00 | 50 | 1022.7 |
| 20260508010555 | 62 | 15 | 0.0 | 7.0 | 0.00 | 0.00 | 0.00 | 52 | 1022.6 |
| 20260508010101 | 63 | 15 | 1.0 | 5.0 | 0.00 | 0.00 | 0.00 | 49 | 1022.7 |
| 20260508005558 | 63 | 15 | 1.0 | 5.0 | 0.00 | 0.00 | 0.00 | 49 | 1022.6 |
| 20260508005056 | 63 | 15 | 1.0 | 6.0 | 0.00 | 0.00 | 0.00 | 48 | 1022.7 |
| 20260508004557 | 63 | 16 | 1.0 | 7.0 | 0.00 | 0.00 | 0.00 | 47 | 1022.8 |
| 20260508004056 | 63 | 15 | 1.0 | 7.0 | 0.00 | 0.00 | 0.00 | 50 | 1022.6 |
| 20260508003556 | 63 | 14 | 1.0 | 5.0 | 0.00 | 0.00 | 0.00 | 48 | 1022.7 |
| 20260508003056 | 64 | 15 | 2.0 | 7.0 | 0.00 | 0.00 | 0.00 | 47 | 1022.8 |
| 20260508002556 | 64 | 15 | 1.0 | 8.0 | 0.00 | 0.00 | 0.00 | 49 | 1022.7 |
| 20260508002056 | 65 | 15 | 2.0 | 8.0 | 0.00 | 0.00 | 0.00 | 48 | 1022.7 |
| 20260508001559 | 65 | 15 | 3.0 | 8.0 | 0.00 | 0.00 | 0.00 | 47 | 1022.6 |
| 20260508001055 | 66 | 14 | 2.0 | 7.0 | 0.00 | 0.00 | 0.00 | 47 | 1022.6 |
| 20260508000555 | 66 | 15 | 2.0 | 8.0 | 0.00 | 0.00 | 0.00 | 44 | 1022.7 |
| 20260508000057 | 66 | 15 | 2.0 | 8.0 | 0.00 | 0.00 | 0.00 | 45 | 1022.7 |
| 20260507235556 | 66 | 15 | 2.0 | 6.0 | 0.00 | 0.00 | 0.00 | 46 | 1022.6 |
| 20260507235056 | 66 | 15 | 2.0 | 7.0 | 0.00 | 0.00 | 0.00 | 47 | 1022.7 |
| 20260507234559 | 66 | 14 | 2.0 | 7.0 | 0.00 | 0.00 | 0.00 | 45 | 1022.8 |
| 20260507234107 | 66 | 14 | 1.0 | 7.0 | 0.00 | 0.00 | 0.00 | 48 | 1022.8 |
| 20260507233556 | 66 | 14 | 2.0 | 7.0 | 0.00 | 0.00 | 0.00 | 47 | 1022.7 |
| 20260507233059 | 66 | 15 | 1.0 | 7.0 | 0.00 | 0.00 | 0.00 | 46 | 1022.7 |
| 20260507232556 | 66 | 14 | 2.0 | 7.0 | 0.00 | 0.00 | 0.00 | 45 | 1022.8 |
| 20260507232055 | 66 | 15 | 3.0 | 11.0 | 0.00 | 0.00 | 0.00 | 46 | 1022.8 |
| 20260507231558 | 66 | 14 | 2.0 | 11.0 | 0.00 | 0.00 | 0.00 | 48 | 1022.8 |
| 20260507231058 | 67 | 0 | 2.0 | 7.0 | 0.00 | 0.00 | 0.00 | 46 | 1022.9 |
| 20260507230557 | 67 | 15 | 2.0 | 5.0 | 0.00 | 0.00 | 0.00 | 45 | 1022.9 |
| 20260507230059 | 66 | 13 | 2.0 | 8.0 | 0.00 | 0.00 | 0.00 | 47 | 1022.8 |
| 20260507225555 | 66 | 14 | 2.0 | 8.0 | 0.00 | 0.00 | 0.00 | 47 | 1022.8 |
| 20260507225055 | 66 | 14 | 2.0 | 8.0 | 0.00 | 0.00 | 0.00 | 47 | 1022.8 |
| 20260507224557 | 67 | 15 | 2.0 | 7.0 | 0.00 | 0.00 | 0.00 | 46 | 1022.9 |
| 20260507224056 | 67 | 15 | 2.0 | 10.0 | 0.00 | 0.00 | 0.00 | 42 | 1022.9 |
| 20260507223558 | 66 | 15 | 2.0 | 10.0 | 0.00 | 0.00 | 0.00 | 43 | 1023.0 |
| 20260507223059 | 66 | 15 | 3.0 | 10.0 | 0.00 | 0.00 | 0.00 | 41 | 1023.0 |
| 20260507222556 | 66 | 15 | 3.0 | 10.0 | 0.00 | 0.00 | 0.00 | 43 | 1023.0 |
| 20260507222056 | 66 | 15 | 2.0 | 8.0 | 0.00 | 0.00 | 0.00 | 45 | 1023.0 |
| 20260507221558 | 66 | 13 | 2.0 | 11.0 | 0.00 | 0.00 | 0.00 | 45 | 1023.2 |
| 20260507221058 | 66 | 15 | 3.0 | 11.0 | 0.00 | 0.00 | 0.00 | 41 | 1023.2 |
| 20260507220557 | 67 | 13 | 2.0 | 7.0 | 0.00 | 0.00 | 0.00 | 42 | 1023.3 |
| 20260507220100 | 67 | 15 | 2.0 | 9.0 | 0.00 | 0.00 | 0.00 | 45 | 1023.4 |
| 20260507215557 | 67 | 15 | 2.0 | 9.0 | 0.00 | 0.00 | 0.00 | 42 | 1023.4 |
| 20260507215056 | 67 | 14 | 2.0 | 7.0 | 0.00 | 0.00 | 0.00 | 45 | 1023.5 |
| 20260507214604 | 67 | 15 | 2.0 | 8.0 | 0.00 | 0.00 | 0.00 | 45 | 1023.4 |
| 20260507214056 | 67 | 15 | 2.0 | 8.0 | 0.00 | 0.00 | 0.00 | 44 | 1023.6 |
| 20260507213556 | 67 | 15 | 2.0 | 8.0 | 0.00 | 0.00 | 0.00 | 43 | 1023.7 |
| 20260507213102 | 67 | 15 | 2.0 | 10.0 | 0.00 | 0.00 | 0.00 | 44 | 1023.6 |
| 20260507212556 | 67 | 15 | 3.0 | 10.0 | 0.00 | 0.00 | 0.00 | 41 | 1023.7 |
| 20260507212057 | 68 | 14 | 2.0 | 9.0 | 0.00 | 0.00 | 0.00 | 39 | 1023.8 |
| 20260507211600 | 67 | 15 | 2.0 | 8.0 | 0.00 | 0.00 | 0.00 | 41 | 1023.8 |
| 20260507211056 | 67 | 15 | 2.0 | 8.0 | 0.00 | 0.00 | 0.00 | 42 | 1023.8 |
| 20260507210557 | 67 | 15 | 2.0 | 7.0 | 0.00 | 0.00 | 0.00 | 40 | 1023.8 |
| 20260507210104 | 67 | 11 | 1.0 | 8.0 | 0.00 | 0.00 | 0.00 | 39 | 1023.8 |
| 20260507205556 | 67 | 14 | 1.0 | 8.0 | 0.00 | 0.00 | 0.00 | 42 | 1023.9 |
| 20260507205056 | 67 | 15 | 2.0 | 8.0 | 0.00 | 0.00 | 0.00 | 39 | 1023.9 |
| 20260507204601 | 67 | 15 | 2.0 | 8.0 | 0.00 | 0.00 | 0.00 | 41 | 1024.0 |
| 20260507204055 | 67 | 15 | 1.0 | 10.0 | 0.00 | 0.00 | 0.00 | 44 | 1024.0 |
| 20260507203556 | 67 | 14 | 1.0 | 10.0 | 0.00 | 0.00 | 0.00 | 41 | 1024.0 |
| 20260507203059 | 67 | 15 | 2.0 | 9.0 | 0.00 | 0.00 | 0.00 | 39 | 1024.0 |
| 20260507202555 | 67 | 15 | 1.0 | 7.0 | 0.00 | 0.00 | 0.00 | 39 | 1024.0 |
| 20260507202059 | 67 | 14 | 1.0 | 7.0 | 0.00 | 0.00 | 0.00 | 40 | 1024.0 |
| 20260507201556 | 66 | 15 | 2.0 | 7.0 | 0.00 | 0.00 | 0.00 | 39 | 1024.0 |
| 20260507201058 | 66 | 14 | 1.0 | 7.0 | 0.00 | 0.00 | 0.00 | 40 | 1024.2 |
| 20260507200555 | 66 | 15 | 1.0 | 5.0 | 0.00 | 0.00 | 0.00 | 39 | 1024.2 |
| 20260507200057 | 66 | 15 | 1.0 | 5.0 | 0.00 | 0.00 | 0.00 | 39 | 1024.2 |
| 20260507195556 | 66 | 15 | 1.0 | 5.0 | 0.00 | 0.00 | 0.00 | 40 | 1024.2 |
| 20260507195056 | 66 | 15 | 1.0 | 5.0 | 0.00 | 0.00 | 0.00 | 40 | 1024.3 |
| 20260507194556 | 66 | 15 | 1.0 | 5.0 | 0.00 | 0.00 | 0.00 | 40 | 1024.2 |
| 20260507194055 | 66 | 15 | 2.0 | 7.0 | 0.00 | 0.00 | 0.00 | 43 | 1024.2 |
| 20260507193556 | 65 | 0 | 1.0 | 7.0 | 0.00 | 0.00 | 0.00 | 43 | 1024.2 |
| 20260507193053 | 65 | 15 | 1.0 | 4.0 | 0.00 | 0.00 | 0.00 | 41 | 1024.3 |
| 20260507192556 | 65 | 16 | 1.0 | 7.0 | 0.00 | 0.00 | 0.00 | 41 | 1024.4 |
| 20260507192055 | 65 | 15 | 2.0 | 7.0 | 0.00 | 0.00 | 0.00 | 40 | 1024.4 |
| 20260507191558 | 65 | 15 | 2.0 | 8.0 | 0.00 | 0.00 | 0.00 | 42 | 1024.4 |
| 20260507191055 | 65 | 0 | 2.0 | 8.0 | 0.00 | 0.00 | 0.00 | 41 | 1024.4 |
| 20260507190556 | 66 | 360 | 1.0 | 5.0 | 0.00 | 0.00 | 0.00 | 41 | 1024.4 |
| 20260507190054 | 65 | 0 | 1.0 | 5.0 | 0.00 | 0.00 | 0.00 | 42 | 1024.4 |
| 20260507185556 | 65 | 16 | 1.0 | 5.0 | 0.00 | 0.00 | 0.00 | 40 | 1024.6 |
| 20260507185056 | 65 | 14 | 2.0 | 5.0 | 0.00 | 0.00 | 0.00 | 43 | 1024.5 |
| 20260507184555 | 64 | 0 | 1.0 | 4.0 | 0.00 | 0.00 | 0.00 | 43 | 1024.5 |
| 20260507184055 | 64 | 15 | 1.0 | 4.0 | 0.00 | 0.00 | 0.00 | 41 | 1024.6 |
| 20260507183556 | 64 | 15 | 1.0 | 3.0 | 0.00 | 0.00 | 0.00 | 44 | 1024.7 |
| 20260507183056 | 64 | 0 | 0.0 | 4.0 | 0.00 | 0.00 | 0.00 | 44 | 1024.6 |
| 20260507182556 | 63 | 14 | 1.0 | 7.0 | 0.00 | 0.00 | 0.00 | 45 | 1024.6 |
| 20260507182056 | 62 | 15 | 2.0 | 7.0 | 0.00 | 0.00 | 0.00 | 46 | 1024.7 |
| 20260507181555 | 62 | 15 | 1.0 | 5.0 | 0.00 | 0.00 | 0.00 | 45 | 1024.7 |
| 20260507181056 | 62 | 15 | 2.0 | 5.0 | 0.00 | 0.00 | 0.00 | 45 | 1024.6 |
| 20260507180556 | 62 | 14 | 1.0 | 5.0 | 0.00 | 0.00 | 0.00 | 48 | 1024.7 |
| 20260507180100 | 61 | 14 | 2.0 | 5.0 | 0.00 | 0.00 | 0.00 | 47 | 1024.6 |
| 20260507175555 | 62 | 14 | 2.0 | 5.0 | 0.00 | 0.00 | 0.00 | 46 | 1024.6 |
| 20260507175055 | 62 | 15 | 2.0 | 5.0 | 0.00 | 0.00 | 0.00 | 47 | 1024.6 |
| 20260507174608 | 62 | 360 | 2.0 | 5.0 | 0.00 | 0.00 | 0.00 | 51 | 1024.7 |
| 20260507174055 | 62 | 15 | 0.0 | 5.0 | 0.00 | 0.00 | 0.00 | 54 | 1024.7 |
| 20260507173556 | 61 | 15 | 1.0 | 5.0 | 0.00 | 0.00 | 0.00 | 50 | 1024.5 |
| 20260507173057 | 61 | 15 | 1.0 | 5.0 | 0.00 | 0.00 | 0.00 | 51 | 1024.5 |
| 20260507172557 | 60 | 14 | 1.0 | 3.0 | 0.00 | 0.00 | 0.00 | 54 | 1024.6 |
| 20260507172056 | 60 | 14 | 0.0 | 3.0 | 0.00 | 0.00 | 0.00 | 60 | 1024.5 |
| 20260507171610 | 59 | 14 | 0.0 | 2.0 | 0.00 | 0.00 | 0.00 | 66 | 1024.6 |
| 20260507171056 | 58 | 0 | 0.0 | 2.0 | 0.00 | 0.00 | 0.00 | 65 | 1024.6 |
| 20260507170556 | 58 | 0 | 0.0 | 2.0 | 0.00 | 0.00 | 0.00 | 70 | 1024.6 |
| 20260507170055 | 57 | 15 | 0.0 | 4.0 | 0.00 | 0.00 | 0.00 | 72 | 1024.6 |
| 20260507165555 | 56 | 0 | 1.0 | 4.0 | 0.00 | 0.00 | 0.00 | 75 | 1024.7 |
| 20260507165055 | 56 | 0 | 0.0 | 3.0 | 0.00 | 0.00 | 0.00 | 77 | 1024.7 |
| 20260507164556 | 55 | 0 | 0.0 | 3.0 | 0.00 | 0.00 | 0.00 | 75 | 1024.7 |
| 20260507164056 | 54 | 0 | 0.0 | 3.0 | 0.00 | 0.00 | 0.00 | 78 | 1024.6 |
| 20260507163557 | 54 | 15 | 0.0 | 3.0 | 0.00 | 0.00 | 0.00 | 80 | 1024.7 |
| 20260507163053 | 54 | 0 | 0.0 | 3.0 | 0.00 | 0.00 | 0.00 | 82 | 1024.7 |
| 20260507162556 | 53 | 0 | 0.0 | 2.0 | 0.00 | 0.00 | 0.00 | 83 | 1024.8 |
| 20260507162056 | 53 | 0 | 0.0 | 2.0 | 0.00 | 0.00 | 0.00 | 83 | 1024.7 |
| 20260507161602 | 52 | 0 | 0.0 | 2.0 | 0.00 | 0.00 | 0.00 | 85 | 1024.8 |
| 20260507161056 | 52 | 0 | 0.0 | 2.0 | 0.00 | 0.00 | 0.00 | 86 | 1024.8 |
| 20260507160556 | 51 | 0 | 0.0 | 2.0 | 0.00 | 0.00 | 0.00 | 87 | 1024.8 |
| 20260507160056 | 51 | 0 | 0.0 | 2.0 | 0.00 | 0.00 | 0.00 | 86 | 1024.9 |
| 20260507155555 | 50 | 0 | 0.0 | 2.0 | 0.00 | 0.00 | 0.00 | 88 | 1024.8 |
| 20260507155056 | 50 | 0 | 0.0 | 2.0 | 0.00 | 0.00 | 0.00 | 89 | 1024.8 |
| 20260507154555 | 49 | 0 | 0.0 | 2.0 | 0.00 | 0.00 | 0.00 | 90 | 1024.8 |
| 20260507154055 | 49 | 0 | 0.0 | 2.0 | 0.00 | 0.00 | 0.00 | 91 | 1024.9 |
| 20260507153555 | 48 | 0 | 0.0 | 2.0 | 0.00 | 0.00 | 0.00 | 93 | 1024.9 |
| 20260507153103 | 48 | 15 | 0.0 | 2.0 | 0.00 | 0.00 | 0.00 | 94 | 1024.8 |
| 20260507152555 | 47 | 0 | 0.0 | 2.0 | 0.00 | 0.00 | 0.00 | 95 | 1024.9 |
| 20260507152100 | 46 | 0 | 0.0 | 2.0 | 0.00 | 0.00 | 0.00 | 95 | 1024.7 |
| 20260507151555 | 46 | 0 | 0.0 | 1.0 | 0.00 | 0.00 | 0.00 | 96 | 1024.7 |
| 20260507151057 | 45 | 0 | 0.0 | 1.0 | 0.00 | 0.00 | 0.00 | 96 | 1024.7 |
| 20260507150556 | 45 | 0 | 0.0 | 0.0 | 0.00 | 0.00 | 0.00 | 96 | 1024.8 |
| 20260507150059 | 44 | 0 | 0.0 | 0.0 | 0.00 | 0.00 | 0.00 | 96 | 1024.8 |
| 20260507145556 | 44 | 0 | 0.0 | 0.0 | 0.00 | 0.00 | 0.00 | 96 | 1024.8 |
| 20260507145055 | 44 | 0 | 0.0 | 0.0 | 0.00 | 0.00 | 0.00 | 96 | 1024.8 |
| 20260507144557 | 43 | 0 | 0.0 | 0.0 | 0.00 | 0.00 | 0.00 | 95 | 1024.8 |
| 20260507144057 | 43 | 0 | 0.0 | 0.0 | 0.00 | 0.00 | 0.00 | 95 | 1024.9 |
| 20260507143556 | 43 | 0 | 0.0 | 0.0 | 0.00 | 0.00 | 0.00 | 95 | 1024.8 |
| 20260507143059 | 43 | 0 | 0.0 | 1.0 | 0.00 | 0.00 | 0.00 | 94 | 1024.7 |
| 20260507142556 | 43 | 0 | 0.0 | 1.0 | 0.00 | 0.00 | 0.00 | 94 | 1024.7 |
| 20260507142057 | 42 | 0 | 0.0 | 1.0 | 0.00 | 0.00 | 0.00 | 94 | 1024.7 |
| 20260507141559 | 42 | 0 | 0.0 | 2.0 | 0.00 | 0.00 | 0.00 | 94 | 1024.7 |
| 20260507141056 | 42 | 73 | 0.0 | 2.0 | 0.00 | 0.00 | 0.00 | 94 | 1024.8 |
| 20260507140556 | 42 | 0 | 0.0 | 1.0 | 0.00 | 0.00 | 0.00 | 93 | 1024.7 |
| 20260507140107 | 42 | 0 | 0.0 | 2.0 | 0.00 | 0.00 | 0.00 | 93 | 1024.7 |
| 20260507135556 | 42 | 0 | 0.0 | 2.0 | 0.00 | 0.00 | 0.00 | 93 | 1024.6 |
| 20260507135056 | 42 | 0 | 0.0 | 2.0 | 0.00 | 0.00 | 0.00 | 93 | 1024.5 |
| 20260507134558 | 42 | 0 | 0.0 | 2.0 | 0.00 | 0.00 | 0.00 | 92 | 1024.6 |
| 20260507134055 | 42 | 0 | 0.0 | 1.0 | 0.00 | 0.00 | 0.00 | 92 | 1024.5 |
| 20260507133555 | 42 | 0 | 0.0 | 1.0 | 0.00 | 0.00 | 0.00 | 92 | 1024.5 |